This is the latest recevied weather packets stored in our database for station/object N4YH-13. If no packets are shown the sender has not sent any weather packets the latest 10 day(s).
| Time | Temp. | Humidity | Pressure | Rain* | Wind** | Luminosity | Snow |
|---|---|---|---|---|---|---|---|
| 1777839603 | 17.22° C | 53% | 1016.2 hPa | 0 mm | - | - | - |
| 1777839483 | 17.22° C | 52% | 1016.2 hPa | 0 mm | - | - | - |
| 1777839364 | 17.22° C | 53% | 1016.4 hPa | 0 mm | - | - | - |
| 1777839244 | 17.22° C | 53% | 1016.5 hPa | 0 mm | - | - | - |
| 1777839124 | 17.22° C | 53% | 1016.5 hPa | 0 mm | - | - | - |
| 1777839003 | 17.22° C | 55% | 1016.4 hPa | 0 mm | - | - | - |
| 1777838883 | 17.22° C | 55% | 1016.4 hPa | 0 mm | - | - | - |
| 1777838763 | 16.67° C | 54% | 1016.5 hPa | 0 mm | - | - | - |
| 1777838643 | 16.67° C | 52% | 1016.4 hPa | 0 mm | - | - | - |
| 1777838524 | 16.67° C | 55% | 1016.7 hPa | 0 mm | - | - | - |
| 1777838404 | 16.67° C | 56% | 1016.7 hPa | 0 mm | - | - | - |
| 1777838284 | 16.67° C | 55% | 1016.7 hPa | 0 mm | - | - | - |
| 1777838163 | 16.67° C | 56% | 1016.7 hPa | 0 mm | - | - | - |
| 1777838043 | 16.67° C | 54% | 1016.7 hPa | 0 mm | - | - | - |
| 1777837923 | 16.67° C | 54% | 1016.7 hPa | 0 mm | - | - | - |
| 1777837804 | 16.67° C | 57% | 1016.7 hPa | 0 mm | - | - | - |
| 1777837684 | 16.67° C | 57% | 1016.7 hPa | 0 mm | - | - | - |
| 1777837564 | 16.67° C | 59% | 1017 hPa | 0 mm | - | - | - |
| 1777837443 | 16.11° C | 55% | 1017 hPa | 0 mm | - | - | - |
| 1777837323 | 16.11° C | 57% | 1017 hPa | 0 mm | - | - | - |
| 1777837203 | 16.11° C | 57% | 1017 hPa | 0 mm | - | - | - |
| 1777837083 | 16.11° C | 58% | 1017 hPa | 0 mm | - | - | - |
| 1777836964 | 16.11° C | 56% | 1017 hPa | 0 mm | - | - | - |
| 1777836844 | 16.11° C | 56% | 1017 hPa | 0 mm | - | - | - |
| 1777836724 | 16.11° C | 56% | 1017.1 hPa | 0 mm | - | - | - |
* Rain latest hour (hover to see other rain measurements)
** Current wind speed in m/s (hover to see current wind gust speed)